Location: Unspecified
(0.0000°N, 0.0000°E)
Time: 14:33:07
(UTC+00:00)

NTS 1 - Pass Details

Date: 13 June 2023
Orbit: 13478 x 13741 km, 124.8° (Epoch: 26 September)

Event Time Altitude Azimuth Distance (km) Brightness Sun altitude
Rises 21:47:59 0° 98° (E) 19,083 ? -50.4°
Reaches altitude 10° 22:03:42 10° 110° (ESE) 18,001 ? -53.4°
Enters shadow 22:27:11 22° 133° (SE) 16,801 ? -57.6°
Exits shadow 22:44:27 26° 153° (SSE) 16,428 ? -60.4°
Maximum altitude 22:47:28 26° 157° (SSE) 16,416 ? -60.8°
Drops below altitude 10° 23:29:56 10° 201° (SSW) 17,900 ? -65.6°
Sets 23:44:27 0° 211° (SSW) 18,953 ? -66.4°
